CW1844 Weather Reports


time (UTC)temp
C
wind
direction
speed
KPH
gust
KPH
rain 1hr
cm
rain 24hr
cm
rain mn
cm
humidity
%
barometer
mb
20260507040906 12 40 0.0 0.0 0.00 0.00 0.00 86 1018.6
20260507035929 13 40 0.0 0.0 0.00 0.00 0.00 85 1018.5
20260507034915 13 24 0.0 4.8 0.00 0.00 0.00 84 1018.3
20260507032908 13 347 3.2 3.2 0.00 0.00 0.00 82 1018.2
20260507031859 14 328 0.0 1.6 0.00 0.00 0.00 81 1018.2
20260507030858 14 328 0.0 6.4 0.00 0.00 0.00 80 1017.9
20260507023859 16 270 0.0 0.0 0.00 0.00 0.00 76 1017.5
20260507022922 16 286 0.0 0.0 0.00 0.00 0.00 75 1017.5
20260507021904 16 342 0.0 1.6 0.00 0.00 0.00 74 1017.4
20260507020858 17 263 0.0 0.0 0.00 0.00 0.00 73 1017.4
20260507015858 17 10 0.0 0.0 0.00 0.00 0.00 72 1017.5
20260507014915 17 360 0.0 0.0 0.00 0.00 0.00 72 1017.4
20260507013917 18 10 0.0 0.0 0.00 0.00 0.00 71 1017.4
20260507011905 18 328 0.0 0.0 0.00 0.00 0.00 69 1017.3
20260507005910 19 315 0.0 0.0 0.00 0.00 0.00 67 1017.4
20260507004914 20 10 0.0 0.0 0.00 0.00 0.00 66 1017.2
20260507003906 20 294 0.0 4.8 0.00 0.00 0.00 65 1017.2
20260507002927 20 334 4.8 16.1 0.00 0.00 0.00 64 1017.0
20260507001919 21 5 0.0 0.0 0.00 0.00 0.00 63 1017.0
20260507000918 21 285 0.0 0.0 0.00 0.00 0.00 61 1017.0
20260506234913 22 319 0.0 0.0 0.00 0.00 0.00 60 1016.9
20260506233905 22 355 0.0 0.0 0.00 0.00 0.00 60 1017.0
20260506232913 22 336 0.0 0.0 0.00 0.00 0.00 59 1017.1
20260506231905 23 304 0.0 0.0 0.00 0.00 0.00 56 1017.2
20260506230905 23 271 0.0 0.0 0.00 0.00 0.00 55 1017.2
20260506225923 25 21 0.0 0.0 0.00 0.00 0.00 54 1017.3
20260506224912 25 5 0.0 0.0 0.00 0.00 0.00 52 1017.4
20260506223857 26 5 0.0 0.0 0.00 0.00 0.00 50 1017.4
20260506222909 26 274 0.0 0.0 0.00 0.00 0.00 50 1017.4
20260506221855 27 136 0.0 0.0 0.00 0.00 0.00 47 1017.5
20260506220904 27 5 0.0 0.0 0.00 0.00 0.00 47 1017.6
20260506215909 27 333 0.0 0.0 0.00 0.00 0.00 46 1017.8
20260506214906 27 318 0.0 0.0 0.00 0.00 0.00 45 1017.8
20260506213906 28 330 0.0 0.0 0.00 0.00 0.00 44 1018.0
20260506212910 28 169 0.0 0.0 0.00 0.00 0.00 43 1018.1
20260506211856 28 141 0.0 0.0 0.00 0.00 0.00 43 1018.2
20260506210904 27 96 0.0 0.0 0.00 0.00 0.00 45 1018.2
20260506205901 27 205 0.0 0.0 0.00 0.00 0.00 46 1018.4
20260506204906 27 187 0.0 0.0 0.00 0.00 0.00 45 1018.4
20260506203902 27 19 0.0 0.0 0.00 0.00 0.00 46 1018.4
20260506200856 26 180 0.0 0.0 0.00 0.00 0.00 47 1018.8
20260506195902 25 155 0.0 0.0 0.00 0.00 0.00 47 1018.8
20260506194855 25 34 0.0 0.0 0.00 0.00 0.00 45 1018.9
20260506193907 25 190 0.0 0.0 0.00 0.00 0.00 48 1019.1
20260506192922 25 184 0.0 0.0 0.00 0.00 0.00 48 1019.1
20260506190904 24 202 0.0 0.0 0.00 0.00 0.00 50 1019.3
20260506185900 23 88 0.0 0.0 0.00 0.00 0.00 53 1019.3
20260506184855 22 163 0.0 0.0 0.00 0.00 0.00 54 1019.3
20260506183903 22 146 0.0 0.0 0.00 0.00 0.00 55 1019.4
20260506182914 21 337 0.0 0.0 0.00 0.00 0.00 55 1019.6
20260506180908 21 203 0.0 0.0 0.00 0.00 0.00 60 1019.7
20260506175855 20 203 0.0 0.0 0.00 0.00 0.00 61 1019.6
20260506174907 19 58 0.0 0.0 0.00 0.00 0.00 63 1019.7
20260506173902 18 155 0.0 0.0 0.00 0.00 0.00 67 1019.7
20260506172903 18 158 0.0 0.0 0.00 0.00 0.00 68 1019.7
20260506171902 17 157 0.0 0.0 0.00 0.00 0.00 70 1019.8
20260506170854 17 100 0.0 0.0 0.00 0.00 0.00 73 1019.9
20260506165904 16 100 0.0 0.0 0.00 0.00 0.00 74 1019.9
20260506164904 16 102 0.0 0.0 0.00 0.00 0.00 76 1019.9
20260506162952 14 15 0.0 0.0 0.00 0.00 0.00 86 1019.9
20260506161903 13 15 0.0 0.0 0.00 0.00 0.00 88 1019.9
20260506155903 12 16 0.0 0.0 0.00 0.00 0.00 94 1019.9
20260506153903 11 16 0.0 0.0 0.00 0.00 0.00 94 1019.9
20260506150903 11 16 0.0 0.0 0.00 0.00 0.00 94 1019.8
20260506145920 11 16 0.0 0.0 0.00 0.00 0.00 94 1019.8
20260506144904 11 16 0.0 0.0 0.00 0.00 0.00 94 1020.0
20260506143902 10 16 0.0 0.0 0.00 0.00 0.00 94 1019.9
20260506142903 10 16 0.0 0.0 0.00 0.00 0.00 94 1019.9
20260506141922 10 16 0.0 0.0 0.00 0.00 0.00 94 1019.8
20260506140900 10 16 0.0 0.0 0.00 0.00 0.00 93 1019.8
20260506135903 10 16 0.0 0.0 0.00 0.00 0.00 93 1019.7
20260506134908 10 16 0.0 0.0 0.00 0.00 0.00 93 1019.5
20260506133903 10 16 0.0 0.0 0.00 0.00 0.00 93 1019.5
20260506132903 10 16 0.0 0.0 0.00 0.00 0.00 93 1019.3
20260506131903 10 16 0.0 0.0 0.00 0.00 0.00 93 1019.2
20260506125906 10 16 0.0 0.0 0.00 0.00 0.00 93 1019.1
20260506124902 10 16 0.0 0.0 0.00 0.00 0.00 92 1019.0
20260506123903 10 16 0.0 0.0 0.00 0.00 0.00 92 1019.0
20260506122902 11 16 0.0 0.0 0.00 0.00 0.00 92 1018.9
20260506121903 11 16 0.0 0.0 0.00 0.00 0.00 92 1018.8
20260506120904 11 16 0.0 0.0 0.00 0.00 0.00 92 1018.8
20260506115904 11 16 0.0 0.0 0.00 0.00 0.00 92 1018.7
20260506114914 11 16 0.0 0.0 0.00 0.00 0.00 92 1018.7
20260506113904 11 16 0.0 0.0 0.00 0.00 0.00 92 1018.8
20260506112903 11 16 0.0 0.0 0.00 0.00 0.00 92 1018.7
20260506110916 11 16 0.0 0.0 0.00 0.00 0.00 92 1018.6
20260506105902 11 16 0.0 0.0 0.00 0.00 0.00 92 1018.5
20260506104901 11 16 0.0 0.0 0.00 0.00 0.00 92 1018.5
20260506103902 11 16 0.0 0.0 0.00 0.00 0.00 92 1018.5
20260506102903 11 16 0.0 0.0 0.00 0.00 0.00 92 1018.5
20260506101903 11 16 0.0 0.0 0.00 0.00 0.00 92 1018.6
20260506095937 11 16 0.0 0.0 0.00 0.00 0.00 91 1018.5
20260506094902 11 16 0.0 0.0 0.00 0.00 0.00 91 1018.4
20260506090853 11 16 0.0 0.0 0.00 0.00 0.00 90 1018.5
20260506085900 11 16 0.0 0.0 0.00 0.00 0.00 90 1018.4
20260506084903 11 16 0.0 0.0 0.00 0.00 0.00 90 1018.3
20260506082916 11 16 0.0 0.0 0.00 0.00 0.00 90 1018.4
20260506081902 11 16 0.0 0.0 0.00 0.00 0.00 90 1018.4
20260506080901 11 16 0.0 0.0 0.00 0.00 0.00 90 1018.4
20260506072904 12 16 0.0 0.0 0.00 0.00 0.00 89 1018.1
20260506071858 12 16 0.0 0.0 0.00 0.00 0.00 89 1018.1
20260506070902 12 16 0.0 0.0 0.00 0.00 0.00 89 1018.1
20260506061920 12 16 0.0 0.0 0.00 0.00 0.00 88 1017.8
20260506060900 12 19 0.0 0.0 0.00 0.00 0.00 88 1017.8
20260506044918 12 19 0.0 0.0 0.00 0.00 0.00 86 1017.3
20260506043930 12 19 0.0 0.0 0.00 0.00 0.00 85 1017.2
20260506042903 12 19 0.0 0.0 0.00 0.00 0.00 85 1017.1
20260506041904 12 19 0.0 0.0 0.00 0.00 0.00 84 1017.0